Time,TemperatureF,DewpointF,PressureIn,WindDirection,WindDirectionDegrees,WindSpeedMPH,WindSpeedGustMPH,Humidity,HourlyPrecipIn,Conditions,Clouds,dailyrainin,SolarRadiationWatts/m^2,SoftwareType,DateUTC
2013-05-19 00:11:00,80.0,47.0,-100.00,South,181,8.0,12.0,31,0.00,,,0.00,0.000000,,2013-05-19 07:11:00,
2013-05-19 00:21:00,80.0,47.0,-100.00,South,181,8.0,12.0,31,0.00,,,0.00,0.000000,,2013-05-19 07:21:00,
2013-05-19 00:32:00,80.0,47.0,-100.00,South,181,8.0,12.0,31,0.00,,,0.00,0.000000,,2013-05-19 07:32:00,
2013-05-19 00:41:00,80.0,47.0,-100.00,South,181,8.0,12.0,31,0.00,,,0.00,0.000000,,2013-05-19 07:41:00,
2013-05-19 01:12:00,78.0,46.0,-100.00,South,171,9.0,15.0,32,0.00,,,0.00,0.000000,,2013-05-19 08:12:00,
2013-05-19 01:21:00,78.0,46.0,-100.00,South,171,9.0,15.0,32,0.00,,,0.00,0.000000,,2013-05-19 08:21:00,
2013-05-19 01:32:00,78.0,46.0,-100.00,South,171,9.0,15.0,32,0.00,,,0.00,0.000000,,2013-05-19 08:32:00,
2013-05-19 01:41:00,78.0,46.0,-100.00,South,171,9.0,15.0,32,0.00,,,0.00,0.000000,,2013-05-19 08:41:00,
2013-05-19 02:11:00,74.0,46.0,-100.00,SSE,168,5.0,13.0,37,0.00,,,0.00,0.000000,,2013-05-19 09:11:00,
2013-05-19 02:21:00,74.0,46.0,-100.00,SSE,168,5.0,13.0,37,0.00,,,0.00,0.000000,,2013-05-19 09:21:00,
2013-05-19 02:32:00,74.0,46.0,-100.00,SSE,168,5.0,13.0,37,0.00,,,0.00,0.000000,,2013-05-19 09:32:00,
2013-05-19 02:42:00,74.0,46.0,-100.00,SSE,168,5.0,13.0,37,0.00,,,0.00,0.000000,,2013-05-19 09:42:00,
2013-05-19 03:12:00,73.0,44.0,-100.00,South,190,4.0,7.0,36,0.00,,,0.00,0.000000,,2013-05-19 10:12:00,
2013-05-19 03:22:00,73.0,44.0,-100.00,South,190,4.0,7.0,36,0.00,,,0.00,0.000000,,2013-05-19 10:22:00,
2013-05-19 03:32:00,73.0,44.0,-100.00,South,190,4.0,7.0,36,0.00,,,0.00,0.000000,,2013-05-19 10:32:00,
2013-05-19 03:42:00,73.0,44.0,-100.00,South,190,4.0,7.0,36,0.00,,,0.00,0.000000,,2013-05-19 10:42:00,
2013-05-19 04:11:00,71.0,45.0,-100.00,South,174,4.0,7.0,40,0.00,,,0.00,0.000000,,2013-05-19 11:11:00,
2013-05-19 04:21:00,71.0,45.0,-100.00,South,174,4.0,7.0,40,0.00,,,0.00,0.000000,,2013-05-19 11:21:00,
2013-05-19 04:32:00,71.0,45.0,-100.00,South,174,4.0,7.0,40,0.00,,,0.00,0.000000,,2013-05-19 11:32:00,
2013-05-19 04:42:00,71.0,45.0,-100.00,South,174,4.0,7.0,40,0.00,,,0.00,0.000000,,2013-05-19 11:42:00,
2013-05-19 05:11:00,67.0,46.0,-100.00,SSE,148,4.0,6.0,46,0.00,,,0.00,0.000000,,2013-05-19 12:11:00,
2013-05-19 05:21:00,67.0,46.0,-100.00,SSE,148,4.0,6.0,46,0.00,,,0.00,0.000000,,2013-05-19 12:21:00,
2013-05-19 05:31:00,67.0,46.0,-100.00,SSE,148,4.0,6.0,46,0.00,,,0.00,0.000000,,2013-05-19 12:31:00,
2013-05-19 05:41:00,67.0,46.0,-100.00,SSE,148,4.0,6.0,46,0.00,,,0.00,0.000000,,2013-05-19 12:41:00,
2013-05-19 06:11:00,67.0,46.0,-100.00,South,181,5.0,7.0,46,0.00,,,0.00,2.000000,,2013-05-19 13:11:00,
2013-05-19 06:21:00,67.0,46.0,-100.00,South,181,5.0,7.0,46,0.00,,,0.00,2.000000,,2013-05-19 13:21:00,
2013-05-19 06:31:00,67.0,46.0,-100.00,South,181,5.0,7.0,46,0.00,,,0.00,2.000000,,2013-05-19 13:31:00,
2013-05-19 06:42:00,67.0,46.0,-100.00,South,181,5.0,7.0,46,0.00,,,0.00,2.000000,,2013-05-19 13:42:00,
2013-05-19 07:11:00,71.0,52.0,-100.00,SSW,202,4.0,8.0,52,0.00,,,0.00,105.000000,,2013-05-19 14:11:00,
2013-05-19 07:21:00,71.0,52.0,-100.00,SSW,202,4.0,8.0,52,0.00,,,0.00,105.000000,,2013-05-19 14:21:00,
2013-05-19 07:32:00,71.0,52.0,-100.00,SSW,202,4.0,8.0,52,0.00,,,0.00,105.000000,,2013-05-19 14:32:00,
2013-05-19 07:41:00,71.0,52.0,-100.00,SSW,202,4.0,8.0,52,0.00,,,0.00,105.000000,,2013-05-19 14:41:00,
2013-05-19 08:11:00,77.0,47.0,-100.00,South,174,4.0,6.0,35,0.00,,,0.00,332.000000,,2013-05-19 15:11:00,
2013-05-19 08:21:00,77.0,47.0,-100.00,South,174,4.0,6.0,35,0.00,,,0.00,332.000000,,2013-05-19 15:21:00,
2013-05-19 08:33:00,77.0,47.0,-100.00,South,174,4.0,6.0,35,0.00,,,0.00,332.000000,,2013-05-19 15:33:00,
2013-05-19 08:43:00,77.0,47.0,-100.00,South,174,4.0,6.0,35,0.00,,,0.00,332.000000,,2013-05-19 15:43:00,
2013-05-19 09:12:00,83.0,41.0,-100.00,SE,131,3.0,6.0,23,0.00,,,0.00,573.000000,,2013-05-19 16:12:00,
2013-05-19 09:23:00,83.0,41.0,-100.00,SE,131,3.0,6.0,23,0.00,,,0.00,573.000000,,2013-05-19 16:23:00,
2013-05-19 10:12:00,87.0,32.0,-100.00,NW,311,4.0,6.0,14,0.00,,,0.00,790.000000,,2013-05-19 17:12:00,
2013-05-19 10:22:00,87.0,32.0,-100.00,NW,311,4.0,6.0,14,0.00,,,0.00,790.000000,,2013-05-19 17:22:00,
2013-05-19 11:12:00,90.0,34.0,-100.00,NNE,29,4.0,9.0,14,0.00,,,-99.99,972.000000,,2013-05-19 18:12:00,
2013-05-19 12:11:00,91.0,33.0,-100.00,East,90,5.0,9.0,13,0.00,,,0.00,1087.000000,,2013-05-19 19:11:00,
2013-05-19 12:42:00,91.0,33.0,-100.00,East,90,5.0,9.0,13,0.00,,,0.00,1087.000000,,2013-05-19 19:42:00,
2013-05-19 13:11:00,94.0,34.0,-100.00,SW,233,6.0,12.0,12,0.00,,,0.00,1131.000000,,2013-05-19 20:11:00,
2013-05-19 13:21:00,94.0,34.0,-100.00,SW,233,6.0,12.0,12,0.00,,,0.00,1131.000000,,2013-05-19 20:21:00,
2013-05-19 13:31:00,94.0,34.0,-100.00,SW,233,6.0,12.0,12,0.00,,,0.00,1131.000000,,2013-05-19 20:31:00,
2013-05-19 13:41:00,94.0,34.0,-100.00,SW,233,6.0,12.0,12,0.00,,,0.00,1131.000000,,2013-05-19 20:41:00,
2013-05-19 14:11:00,97.0,31.0,-100.00,South,174,3.0,11.0,10,0.00,,,0.00,1113.000000,,2013-05-19 21:11:00,
2013-05-19 14:22:00,97.0,31.0,-100.00,South,174,3.0,11.0,10,0.00,,,0.00,1113.000000,,2013-05-19 21:22:00,
2013-05-19 14:32:00,97.0,31.0,-100.00,South,174,3.0,11.0,10,0.00,,,0.00,1113.000000,,2013-05-19 21:32:00,
2013-05-19 14:43:00,97.0,31.0,-100.00,South,174,3.0,11.0,10,0.00,,,0.00,1113.000000,,2013-05-19 21:43:00,
2013-05-19 15:12:00,99.0,27.0,-100.00,SSW,202,4.0,11.0,8,0.00,,,0.00,1033.000000,,2013-05-19 22:12:00,
2013-05-19 15:23:00,99.0,27.0,-100.00,SSW,202,4.0,11.0,8,0.00,,,0.00,1033.000000,,2013-05-19 22:23:00,
2013-05-19 15:33:00,99.0,27.0,-100.00,SSW,202,4.0,11.0,8,0.00,,,0.00,1033.000000,,2013-05-19 22:33:00,
2013-05-19 15:42:00,99.0,27.0,-100.00,SSW,202,4.0,11.0,8,0.00,,,0.00,1033.000000,,2013-05-19 22:42:00,
2013-05-19 16:11:00,99.0,30.0,-100.00,NNW,332,6.0,14.0,9,0.00,,,0.00,877.000000,,2013-05-19 23:11:00,
2013-05-19 16:21:00,99.0,30.0,-100.00,NNW,332,6.0,14.0,9,0.00,,,0.00,877.000000,,2013-05-19 23:21:00,
2013-05-19 16:32:00,99.0,30.0,-100.00,NNW,332,6.0,14.0,9,0.00,,,0.00,877.000000,,2013-05-19 23:32:00,
2013-05-19 16:42:00,99.0,30.0,-100.00,NNW,332,6.0,14.0,9,0.00,,,0.00,877.000000,,2013-05-19 23:42:00,
2013-05-19 17:11:00,99.0,27.0,-100.00,NNE,30,4.0,13.0,8,0.00,,,0.00,667.000000,,2013-05-20 00:11:00,
2013-05-19 17:21:00,99.0,27.0,-100.00,NNE,30,4.0,13.0,8,0.00,,,0.00,667.000000,,2013-05-20 00:21:00,
2013-05-19 17:32:00,99.0,27.0,-100.00,NNE,30,4.0,13.0,8,0.00,,,0.00,667.000000,,2013-05-20 00:32:00,
2013-05-19 17:41:00,99.0,27.0,-100.00,NNE,30,4.0,13.0,8,0.00,,,0.00,667.000000,,2013-05-20 00:41:00,
2013-05-19 18:11:00,99.0,33.0,-100.00,SE,133,3.0,12.0,10,0.00,,,0.00,433.000000,,2013-05-20 01:11:00,
2013-05-19 18:21:00,99.0,33.0,-100.00,SE,133,3.0,12.0,10,0.00,,,0.00,433.000000,,2013-05-20 01:21:00,
2013-05-19 18:31:00,99.0,33.0,-100.00,SE,133,3.0,12.0,10,0.00,,,0.00,433.000000,,2013-05-20 01:31:00,
2013-05-19 18:42:00,99.0,33.0,-100.00,SE,133,3.0,12.0,10,0.00,,,0.00,433.000000,,2013-05-20 01:42:00,
2013-05-19 19:11:00,94.0,41.0,-100.00,South,172,5.0,7.0,16,0.00,,,0.00,199.000000,,2013-05-20 02:11:00,
2013-05-19 19:21:00,94.0,41.0,-100.00,South,172,5.0,7.0,16,0.00,,,0.00,199.000000,,2013-05-20 02:21:00,
2013-05-19 19:31:00,94.0,41.0,-100.00,South,172,5.0,7.0,16,0.00,,,0.00,199.000000,,2013-05-20 02:31:00,
2013-05-19 19:42:00,94.0,41.0,-100.00,South,172,5.0,7.0,16,0.00,,,0.00,199.000000,,2013-05-20 02:42:00,
2013-05-19 20:11:00,88.0,35.0,-100.00,SSW,209,6.0,8.0,15,0.00,,,0.00,29.000000,,2013-05-20 03:11:00,
2013-05-19 20:21:00,88.0,35.0,-100.00,SSW,209,6.0,8.0,15,0.00,,,0.00,29.000000,,2013-05-20 03:21:00,
2013-05-19 20:33:00,88.0,35.0,-100.00,SSW,209,6.0,8.0,15,0.00,,,0.00,29.000000,,2013-05-20 03:33:00,
2013-05-19 20:42:00,88.0,35.0,-100.00,SSW,209,6.0,8.0,15,0.00,,,0.00,29.000000,,2013-05-20 03:42:00,
2013-05-19 21:12:00,85.0,35.0,-100.00,South,188,5.0,8.0,17,0.00,,,0.00,0.000000,,2013-05-20 04:12:00,
2013-05-19 21:23:00,85.0,35.0,-100.00,South,188,5.0,8.0,17,0.00,,,0.00,0.000000,,2013-05-20 04:23:00,
2013-05-19 21:33:00,85.0,35.0,-100.00,South,188,5.0,8.0,17,0.00,,,0.00,0.000000,,2013-05-20 04:33:00,
2013-05-19 21:42:00,85.0,35.0,-100.00,South,188,5.0,8.0,17,0.00,,,0.00,0.000000,,2013-05-20 04:42:00,
2013-05-19 22:12:00,79.0,37.0,-100.00,SSE,157,4.0,6.0,22,0.00,,,0.00,0.000000,,2013-05-20 05:12:00,
2013-05-19 22:21:00,79.0,37.0,-100.00,SSE,157,4.0,6.0,22,0.00,,,0.00,0.000000,,2013-05-20 05:21:00,
2013-05-19 23:11:00,78.0,36.0,-100.00,SSE,162,5.0,6.0,22,-99.99,,,0.00,0.000000,,2013-05-20 06:11:00,
2013-05-19 23:21:00,78.0,36.0,-100.00,SSE,162,5.0,6.0,22,-99.99,,,0.00,0.000000,,2013-05-20 06:21:00,
2013-05-19 23:32:00,78.0,36.0,-100.00,SSE,162,5.0,6.0,22,-99.99,,,0.00,0.000000,,2013-05-20 06:32:00,
2013-05-19 23:41:00,78.0,36.0,-100.00,SSE,162,5.0,6.0,22,-99.99,,,0.00,0.000000,,2013-05-20 06:41:00,